Find Kosmos-2408

NORAD ID: 28419 Int'l Des: 2004-037 Owner: KVR Country: RU operational
LEOCIRCULARPOLAR

Live-Position

3D-Globus wird geladen...

Über Kosmos-2408

Beschreibung wird geladen...

Nächste Überflüge

Passes for default location (London). Set your location on the main map for personalized predictions.

Höhenverlauf

Loading altitude history...

Zweizeiliger Elementsatz

1 28419U 04037A 26106.24495976 -.00000031 00000-0 -28693-3 0 9996
2 28419 82.4907 4.6710 0016957 46.0154 314.2322 12.45677324980197
Epoch: 16. Apr. 2026 • Age: 13 hours

Aktueller Status

Höhe 1499.1 km
Geschwindigkeit 7.11 km/s
Subsatellitenpunkt -43.82°S, 134.89°W
Startdatum 23. Sept. 2004
Alter 21.5 years
Typ other

Technische Details

Klassifizierung Payload
Masse 225.00 kg
Trockenmasse 225.00 kg
Gesamtmasse 225.00 kg
Länge 1.60 m
Durchmesser 0.80 m
Spannweite 7.00 m
Form Cyl + Ant
Hersteller NPOPMR
Bus-Typ Strela-3
Phasenstatus In Orbit
Besitzer/Staat KVR/RU

Most Searched